Moose, Wyoming, United States (83012)
Lat: 43.66N, Lon: 110.72W
Wx Zone: WYZ013
Local Info
Past Weather Observations for Tuesday, December 16, 2014

NOTE: This archive is for the closest National Weather Service station to Moose. Information may differ from the station used for current weather conditions.

Click here for Long-term Archive

Time Weather Temperature Dewpoint Humidity Pressure Winds Precip Visibility
23:55
Overcast
21°F / -6°C 21°F / -6°C 100% 29.98 in
(1015 mb)
Calm - 3SM
23:35
Overcast
21°F / -6°C 21°F / -6°C 100% 29.98 in
(1015 mb)
SSE 3.5 mph
(SSE 6 kph)
- 2 1/2SM
23:15
Overcast
21°F / -6°C 21°F / -6°C 100% 29.98 in
(1015 mb)
Calm - 4SM
22:55
Overcast
21°F / -6°C 21°F / -6°C 100% 30.01 in
(1016 mb)
Calm 0.01 in
(0.25 mm)
2 1/2SM
22:35
Overcast
21°F / -6°C 21°F / -6°C 100% 29.98 in
(1015 mb)
Calm - 4SM
22:15
Overcast
21°F / -6°C 21°F / -6°C 100% 29.98 in
(1015 mb)
Calm - 2SM
21:55
Overcast
21°F / -6°C 21°F / -6°C 100% 29.98 in
(1015 mb)
Calm - 2SM
21:35
Overcast
21°F / -6°C 21°F / -6°C 100% 29.98 in
(1015 mb)
Calm - 1 1/4SM
21:15
Overcast
21°F / -6°C 21°F / -6°C 100% 29.98 in
(1015 mb)
Calm - 1 1/2SM
19:51
Overcast
19°F / -7°C 19°F / -7°C 100% 30.01 in
(1016 mb)
E 3.5 mph
(E 6 kph)
- 3 -SN
18:53
Overcast
Light Snow
19°F / -7°C 18°F / -8°C 93% 30.01 in
(1016 mb)
Calm - 5SM
17:58
Mostly Cloudy
18°F / -8°C 16°F / -9°C 93% 29.98 in
(1015 mb)
Calm - 10SM
16:51
Mostly Cloudy
18°F / -8°C 16°F / -9°C 93% 29.98 in
(1015 mb)
Calm - 10SM
15:51
Overcast
23°F / -5°C 19°F / -7°C 86% 30.01 in
(1016 mb)
Calm - 10SM
14:51
Overcast
23°F / -5°C 18°F / -8°C 80% 30.01 in
(1016 mb)
Calm - 10SM
13:51
Overcast
21°F / -6°C 18°F / -8°C 86% 30.01 in
(1016 mb)
Calm - 10SM
12:52
Overcast
21°F / -6°C 18°F / -8°C 86% 30.04 in
(1017 mb)
Calm - 10SM
11:51
Overcast
19°F / -7°C 16°F / -9°C 86% 30.04 in
(1017 mb)
Calm - 10SM
10:52
Overcast
18°F / -8°C 16°F / -9°C 93% 30.06 in
(1018 mb)
Calm - 10SM
09:51
Overcast
16°F / -9°C 14°F / -10°C 93% 30.09 in
(1019 mb)
Calm - 10SM
08:52
Overcast
16°F / -9°C 12°F / -11°C 86% 30.09 in
(1019 mb)
Calm - 10SM
07:52
Partly Cloudy
16°F / -9°C 12°F / -11°C 86% 30.06 in
(1018 mb)
Calm - 10SM
06:52
Overcast
16°F / -9°C 12°F / -11°C 86% 30.09 in
(1019 mb)
Calm - 10SM
06:35
Overcast
16°F / -9°C 12°F / -11°C 86% 30.09 in
(1019 mb)
N 4.6 mph
(N 7 kph)
- 10SM
06:15
Overcast
16°F / -9°C 12°F / -11°C 86% 30.09 in
(1019 mb)
N 3.5 mph
(N 6 kph)
- 10SM
05:55
Overcast
14°F / -10°C 12°F / -11°C 92% 30.09 in
(1019 mb)
N 3.5 mph
(N 6 kph)
- 10SM
05:35
Overcast
14°F / -10°C 12°F / -11°C 92% 30.09 in
(1019 mb)
Calm - 10SM
05:15
Overcast
14°F / -10°C 12°F / -11°C 92% 30.09 in
(1019 mb)
N 3.5 mph
(N 6 kph)
- 10SM
04:55
Overcast
14°F / -10°C 12°F / -11°C 92% 30.09 in
(1019 mb)
Calm - 10SM
04:35
Overcast
12°F / -11°C 12°F / -11°C 100% 30.09 in
(1019 mb)
N 3.5 mph
(N 6 kph)
- 10SM
04:15
Overcast
12°F / -11°C 10°F / -12°C 92% 30.12 in
(1020 mb)
N 4.6 mph
(N 7 kph)
- 10SM
03:55
Overcast
12°F / -11°C 10°F / -12°C 92% 30.12 in
(1020 mb)
N 4.6 mph
(N 7 kph)
- 10SM
03:35
Overcast
12°F / -11°C 10°F / -12°C 92% 30.12 in
(1020 mb)
N 3.5 mph
(N 6 kph)
- 8SM
03:15
Overcast
12°F / -11°C 10°F / -12°C 92% 30.12 in
(1020 mb)
NNW 3.5 mph
(NNW 6 kph)
- 10SM
02:55
Overcast
10°F / -12°C 10°F / -12°C 100% 30.12 in
(1020 mb)
N 4.6 mph
(N 7 kph)
- 10SM
02:35
Overcast
10°F / -12°C 9°F / -13°C 92% 30.12 in
(1020 mb)
N 4.6 mph
(N 7 kph)
- 10SM
02:15
Overcast
10°F / -12°C 9°F / -13°C 92% 30.12 in
(1020 mb)
N 4.6 mph
(N 7 kph)
- 10SM
01:55
Overcast
10°F / -12°C 10°F / -12°C 100% 30.12 in
(1020 mb)
NNW 4.6 mph
(NNW 7 kph)
- 10SM
01:35
Mostly Cloudy
10°F / -12°C 9°F / -13°C 92% 30.12 in
(1020 mb)
N 5.8 mph
(N 9 kph)
- 10SM
01:15
Mostly Cloudy
10°F / -12°C 9°F / -13°C 92% 30.12 in
(1020 mb)
N 5.8 mph
(N 9 kph)
- 10SM
00:55
Overcast
10°F / -12°C 9°F / -13°C 92% 30.12 in
(1020 mb)
Calm - 10SM
00:35
Overcast
9°F / -13°C 9°F / -13°C 100% 30.15 in
(1021 mb)
NE 4.6 mph
(NE 7 kph)
- 10SM
00:15
Overcast
9°F / -13°C 7°F / -14°C 92% 30.15 in
(1021 mb)
N 5.8 mph
(N 9 kph)
- 10SM
Time Weather Temperature Dewpoint Humidity Pressure Winds Precip Visibility


Weather for websites

WeatherForYou.com, LLC is not responsible for any damages or problems caused by this service. Current weather conditions are obtained from the closest station including government and personal stations which may have varying degrees of accuracy. Weather forecasts are derived from the NOAA NDFD. Like all things, this site belongs to Jesus Christ... He just trusts me to maintain it. If you have any questions or comments email webmaster@weatherforyou.com

Copyright © 2014, WeatherForYou.com LLC. All rights reserved.